Location: Melbourne
(37.8170°S, 144.9670°E)
Time: 06:53:11
(UTC+11:00)

Vanguard 1 Rocket - Visible Passes

Search period start: 22 October 2014 00:00
Search period end: 01 November 2014 00:00
Orbit: 654 x 4226 km, 34.3° (Epoch: 17 October)

Date Brightness Start Highest point End Pass type
(mag) Time Alt. Az. Time Alt. Az. Time Alt. Az.
22 Oct 10.5 19:40:04 10° W 19:55:10 62° NNW 20:19:55 10° NE visible
22 Oct 11.2 22:08:41 10° W 22:25:53 33° NW 22:40:04 21° N visible
23 Oct 10.9 20:55:53 10° W 21:12:17 44° NNW 21:33:24 14° NNE visible
23 Oct 11.5 23:30:15 10° WNW 23:42:25 17° NW 23:50:44 14° NNW visible
24 Oct 10.6 19:44:13 10° W 19:58:46 54° NNW 20:22:34 10° NE visible
24 Oct 11.3 22:13:45 10° W 22:29:09 27° NW 22:44:07 15° N visible
25 Oct 11.1 21:00:23 10° W 21:15:44 37° NW 21:37:22 10° NNE visible
25 Oct 11.7 23:41:17 10° WNW 23:45:45 11° NW 23:50:23 10° NW visible
26 Oct 10.7 19:48:29 10° W 20:02:23 47° NNW 20:24:53 10° NE visible
26 Oct 11.5 22:19:39 10° W 22:32:32 20° NW 22:48:00 10° N visible
27 Oct 11.2 21:05:14 10° W 21:19:15 29° NW 21:38:33 10° NNE visible
28 Oct 10.9 19:52:56 10° W 20:06:03 39° NNW 20:26:48 10° NNE visible
28 Oct 11.7 22:27:27 10° WNW 22:36:04 14° NW 22:45:51 10° NNW visible
29 Oct 11.4 21:10:43 10° W 21:22:51 22° NW 21:38:56 10° N visible
30 Oct 11.1 19:57:40 10° W 20:09:46 31° NNW 20:28:13 10° NNE visible
31 Oct 11.6 21:17:27 10° WNW 21:26:35 16° NW 21:37:51 10° N visible
